| time (UTC) | temp F | wind direction | speed MPH | gust MPH | rain 1hr in | rain 24hr in | rain mn in | humidity % | barometer mb |
| 20260503190003 | 63 | 249 | 5.0 | 11.0 | 0.00 | 0.00 | 0.32 | 61 | 1011.2 |
| 20260503185502 | 63 | 255 | 5.0 | 14.0 | 0.00 | 0.00 | 0.32 | 61 | 1011.1 |
| 20260503185024 | 63 | 260 | 6.0 | 14.0 | 0.00 | 0.00 | 0.32 | 60 | 1010.8 |
| 20260503184524 | 63 | 260 | 7.0 | 14.0 | 0.00 | 0.00 | 0.32 | 60 | 1011.1 |
| 20260503184003 | 63 | 260 | 8.0 | 14.0 | 0.00 | 0.00 | 0.32 | 60 | 1011.0 |
| 20260503183503 | 63 | 254 | 7.0 | 14.0 | 0.00 | 0.00 | 0.32 | 61 | 1011.1 |
| 20260503183003 | 64 | 249 | 7.0 | 13.0 | 0.00 | 0.00 | 0.32 | 59 | 1010.8 |
| 20260503182503 | 64 | 253 | 7.0 | 14.0 | 0.00 | 0.00 | 0.32 | 58 | 1010.6 |
| 20260503182003 | 64 | 256 | 8.0 | 15.0 | 0.00 | 0.00 | 0.32 | 59 | 1010.7 |
| 20260503181504 | 64 | 256 | 8.0 | 15.0 | 0.00 | 0.00 | 0.32 | 58 | 1011.0 |
| 20260503181003 | 64 | 262 | 7.0 | 16.0 | 0.00 | 0.00 | 0.32 | 58 | 1010.7 |
| 20260503180502 | 64 | 260 | 7.0 | 16.0 | 0.00 | 0.00 | 0.32 | 57 | 1010.7 |
| 20260503180003 | 64 | 254 | 6.0 | 15.0 | 0.00 | 0.00 | 0.32 | 56 | 1011.0 |
| 20260503175503 | 65 | 259 | 8.0 | 18.0 | 0.00 | 0.00 | 0.32 | 55 | 1011.0 |
| 20260503175003 | 65 | 255 | 8.0 | 18.0 | 0.00 | 0.00 | 0.32 | 55 | 1010.8 |
| 20260503174502 | 65 | 252 | 8.0 | 15.0 | 0.00 | 0.00 | 0.32 | 56 | 1011.0 |
| 20260503174002 | 65 | 248 | 7.0 | 15.0 | 0.00 | 0.00 | 0.32 | 57 | 1010.8 |
| 20260503173503 | 65 | 235 | 6.0 | 14.0 | 0.00 | 0.00 | 0.32 | 57 | 1010.7 |
| 20260503173024 | 65 | 242 | 7.0 | 16.0 | 0.00 | 0.00 | 0.32 | 56 | 1010.7 |
| 20260503172502 | 64 | 238 | 8.0 | 16.0 | 0.00 | 0.00 | 0.32 | 57 | 1010.8 |
| 20260503172002 | 65 | 219 | 8.0 | 18.0 | 0.00 | 0.00 | 0.32 | 57 | 1010.8 |
| 20260503171503 | 65 | 233 | 8.0 | 18.0 | 0.00 | 0.00 | 0.32 | 57 | 1010.8 |
| 20260503171002 | 65 | 243 | 7.0 | 15.0 | 0.00 | 0.00 | 0.32 | 57 | 1010.8 |
| 20260503170503 | 65 | 243 | 6.0 | 14.0 | 0.00 | 0.00 | 0.32 | 56 | 1010.8 |
| 20260503151002 | 66 | 219 | 9.0 | 19.0 | 0.00 | 0.00 | 0.32 | 54 | 1011.0 |
| 20260503150502 | 65 | 214 | 9.0 | 19.0 | 0.00 | 0.00 | 0.32 | 54 | 1011.0 |
| 20260503131002 | 65 | 247 | 10.0 | 18.0 | 0.00 | 0.01 | 0.32 | 59 | 1011.8 |
| 20260503130502 | 65 | 242 | 9.0 | 18.0 | 0.00 | 0.01 | 0.32 | 58 | 1011.6 |
| 20260503110502 | 63 | 222 | 8.0 | 15.0 | 0.00 | 0.64 | 0.32 | 69 | 1012.8 |
| 20260503090502 | 59 | 204 | 4.0 | 9.0 | 0.00 | 0.71 | 0.32 | 90 | 1013.5 |
| 20260503081502 | 56 | 199 | 3.0 | 9.0 | 0.00 | 0.73 | 0.32 | 99 | 1013.7 |
| 20260503081002 | 56 | 190 | 3.0 | 7.0 | 0.00 | 0.73 | 0.32 | 99 | 1013.8 |
| 20260503080502 | 56 | 192 | 3.0 | 6.0 | 0.00 | 0.73 | 0.32 | 99 | 1013.8 |
| 20260503072502 | 55 | 183 | 3.0 | 6.0 | 0.00 | 0.87 | 0.32 | 98 | 1013.5 |
| 20260503072002 | 55 | 185 | 3.0 | 4.0 | 0.00 | 0.89 | 0.00 | 98 | 1013.4 |
| 20260503071523 | 55 | 194 | 3.0 | 4.0 | 0.00 | 0.89 | 0.00 | 98 | 1013.3 |
| 20260503071002 | 54 | 189 | 3.0 | 6.0 | 0.00 | 0.89 | 0.00 | 98 | 1013.3 |
| 20260503070523 | 54 | 190 | 3.0 | 6.0 | 0.00 | 0.89 | 0.00 | 98 | 1013.4 |
| 20260503055002 | 55 | 160 | 1.0 | 3.0 | 0.00 | 0.95 | 0.00 | 95 | 1013.1 |
| 20260503054502 | 55 | 144 | 1.0 | 3.0 | 0.00 | 0.95 | 0.00 | 95 | 1013.0 |
| 20260503054002 | 55 | 131 | 1.0 | 2.0 | 0.00 | 0.95 | 0.00 | 95 | 1013.0 |
| 20260503053502 | 55 | 121 | 1.0 | 3.0 | 0.00 | 0.95 | 0.00 | 95 | 1013.0 |
| 20260503053023 | 55 | 109 | 1.0 | 3.0 | 0.00 | 0.95 | 0.00 | 96 | 1012.9 |
| 20260503052502 | 55 | 110 | 1.0 | 2.0 | 0.00 | 0.95 | 0.00 | 96 | 1012.9 |
| 20260503052002 | 55 | 118 | 1.0 | 2.0 | 0.00 | 0.95 | 0.00 | 96 | 1013.3 |
| 20260503051523 | 55 | 107 | 0.0 | 2.0 | 0.00 | 0.95 | 0.00 | 96 | 1013.1 |
| 20260503051002 | 55 | 85 | 0.0 | 1.0 | 0.00 | 0.95 | 0.00 | 96 | 1013.0 |
| 20260503050502 | 55 | 73 | 0.0 | 2.0 | 0.00 | 0.95 | 0.00 | 96 | 1013.2 |
| 20260503050002 | 55 | 70 | 1.0 | 2.0 | 0.00 | 0.95 | 0.00 | 96 | 1013.0 |
| 20260503045502 | 55 | 63 | 1.0 | 2.0 | 0.00 | 0.95 | 0.00 | 96 | 1013.1 |
| 20260503045002 | 55 | 45 | 0.0 | 1.0 | 0.00 | 0.95 | 0.00 | 96 | 1012.9 |
| 20260503044523 | 55 | 41 | 0.0 | 1.0 | 0.00 | 0.95 | 0.00 | 96 | 1013.3 |
| 20260503044023 | 55 | 47 | 0.0 | 1.0 | 0.00 | 0.95 | 0.00 | 96 | 1013.2 |
| 20260503043523 | 55 | 46 | 0.0 | 1.0 | 0.00 | 0.95 | 0.00 | 96 | 1013.1 |
| 20260503043002 | 55 | 60 | 0.0 | 1.0 | 0.00 | 0.95 | 0.00 | 96 | 1013.1 |
| 20260503042523 | 55 | 71 | 1.0 | 4.0 | 0.00 | 0.95 | 0.00 | 96 | 1013.1 |
| 20260503042002 | 55 | 76 | 2.0 | 4.0 | 0.00 | 0.95 | 0.00 | 96 | 1012.9 |
| 20260503041523 | 55 | 78 | 2.0 | 4.0 | 0.00 | 0.95 | 0.00 | 96 | 1013.2 |
| 20260503041023 | 55 | 74 | 2.0 | 4.0 | 0.00 | 0.95 | 0.00 | 96 | 1013.2 |
| 20260503040502 | 54 | 72 | 3.0 | 4.0 | 0.00 | 0.95 | 0.00 | 96 | 1013.1 |
| 20260503040002 | 55 | 72 | 3.0 | 4.0 | 0.00 | 0.95 | 0.00 | 96 | 1013.2 |